Date,TemperatureHighF,TemperatureAvgF,TemperatureLowF,DewpointHighF,DewpointAvgF,DewpointLowF,HumidityHigh,HumidityAvg,HumidityLow,PressureMaxIn,PressureMinIn,WindSpeedMaxMPH,WindSpeedAvgMPH,GustSpeedMaxMPH,PrecipitationSumIn
2014-1-1,24.0,0.2,24.0,-99.9,-99.9,-99.9,0,0,100,30.37,30.18,13,6,21,0.00
2014-1-2,13.0,0.1,13.0,-99.9,-99.9,-99.9,0,0,100,30.33,29.74,20,12,32,0.00
2014-1-3,8.0,0.1,6.0,-99.9,-99.9,-99.9,0,0,100,30.40,29.61,24,16,33,0.00
2014-1-4,28.0,0.3,28.0,-99.9,-99.9,-99.9,0,0,100,30.51,30.28,15,6,24,0.00
2014-1-5,38.0,3.5,34.0,-99.9,-99.9,-99.9,0,0,100,30.32,29.91,7,-16,8,0.00
2014-1-6,54.0,18.6,35.0,-99.9,-99.9,-99.9,0,0,100,29.81,29.36,19,14,30,0.00
2014-1-7,15.0,0.6,15.0,-99.9,-99.9,-99.9,0,0,100,30.26,29.52,23,14,35,0.00
2014-1-8,23.0,0.2,23.0,-99.9,-99.9,-99.9,0,0,100,30.48,30.26,13,7,18,0.00
2014-1-15,44.0,40.8,35.0,-99.9,-99.9,-99.9,0,0,100,29.95,29.76,12,5,15,0.00
2014-1-16,41.0,39.7,38.0,-99.9,-99.9,-99.9,0,0,100,29.86,29.82,5,-331,7,0.00
2014-1-17,39.0,37.9,35.0,-99.9,-99.9,-99.9,0,0,100,29.94,29.88,6,4,7,0.00
2014-1-18,37.0,31.8,34.0,-99.9,-99.9,-99.9,0,0,100,29.90,29.59,9,-94,13,0.00
2014-1-19,34.0,3.6,33.0,-99.9,-99.9,-99.9,0,0,100,29.72,29.56,15,10,28,0.00
2014-1-20,43.0,24.1,33.0,-99.9,-99.9,-99.9,0,0,100,29.82,29.52,19,10,27,0.00
2014-1-21,13.0,0.1,13.0,-99.9,-99.9,-99.9,0,0,100,30.02,29.77,21,12,28,0.00
2014-1-22,-200.0,0.0,200.0,-99.9,-99.9,-99.9,0,0,100,29.87,29.60,25,16,32,0.00
2014-1-23,16.0,0.2,16.0,-99.9,-99.9,-99.9,0,0,100,30.16,29.87,16,8,23,0.00
2014-1-24,-200.0,0.0,200.0,-99.9,-99.9,-99.9,0,0,100,30.26,30.08,17,9,27,0.00
2014-1-25,38.0,2.6,27.0,-99.9,-99.9,-99.9,0,0,100,30.07,29.34,23,9,35,0.00
2014-1-26,19.0,0.2,19.0,-99.9,-99.9,-99.9,0,0,100,29.88,29.35,24,11,32,0.00
2014-1-27,47.0,1.5,28.0,-99.9,-99.9,-99.9,0,0,100,29.98,29.56,19,9,28,0.00
2014-1-28,-200.0,0.0,200.0,-99.9,-99.9,-99.9,0,0,100,30.29,29.98,19,10,28,0.00
2014-1-29,-200.0,0.0,200.0,-99.9,-99.9,-99.9,0,0,100,30.20,29.97,12,6,17,0.00
2014-1-30,21.0,0.2,21.0,-99.9,-99.9,-99.9,0,0,100,30.42,30.19,15,-4,19,0.00
2014-1-31,40.0,4.3,36.0,-99.9,-99.9,-99.9,0,0,100,30.19,30.03,11,6,14,0.00
2014-2-1,40.0,31.3,35.0,-99.9,-99.9,-99.9,0,0,100,30.28,30.06,13,6,16,0.00
2014-2-2,47.0,42.7,36.0,-99.9,-99.9,-99.9,0,0,100,29.99,29.85,12,-161,18,0.00
2014-2-3,42.0,1.5,39.0,-99.9,-99.9,-99.9,0,0,100,30.26,30.04,13,10,20,0.00
2014-2-4,31.0,0.4,31.0,-99.9,-99.9,-99.9,0,0,100,30.44,30.26,10,5,15,0.00
2014-2-5,28.0,0.3,28.0,-99.9,-99.9,-99.9,0,0,100,30.29,29.59,15,9,23,0.00
2014-2-6,-200.0,0.0,200.0,-99.9,-99.9,-99.9,0,0,100,30.24,29.89,12,6,19,0.00
2014-2-7,28.0,0.3,28.0,-99.9,-99.9,-99.9,0,0,100,30.26,30.14,12,6,18,0.00
2014-2-8,-200.0,0.0,200.0,-99.9,-99.9,-99.9,0,0,100,30.29,30.09,11,5,15,0.00
2014-2-9,-200.0,0.0,200.0,-99.9,-99.9,-99.9,0,0,100,30.13,29.93,13,7,16,0.00
2014-2-10,25.0,0.2,25.0,-99.9,-99.9,-99.9,0,0,100,30.19,29.89,17,9,23,0.00
2014-2-11,26.0,0.8,26.0,-99.9,-99.9,-99.9,0,0,100,30.40,30.19,15,9,20,0.00
2014-2-12,24.0,0.2,24.0,-99.9,-99.9,-99.9,0,0,100,30.54,30.39,11,5,15,0.00
2014-2-13,37.0,3.4,33.0,-99.9,-99.9,-99.9,0,0,100,30.37,29.00,24,8,39,0.00
2014-2-14,-200.0,0.0,200.0,-99.9,-99.9,-99.9,0,0,100,29.73,29.00,26,13,39,0.00
2014-2-15,-200.0,0.0,200.0,-99.9,-99.9,-99.9,0,0,100,29.82,29.42,25,10,33,0.00
2014-2-16,-200.0,0.0,200.0,-99.9,-99.9,-99.9,0,0,100,29.95,29.44,26,14,37,0.00
2014-2-17,-200.0,0.0,200.0,-99.9,-99.9,-99.9,0,0,100,30.34,29.95,20,11,27,0.00
2014-2-18,-200.0,0.0,200.0,-99.9,-99.9,-99.9,0,0,100,30.34,29.84,20,7,30,0.00
2014-2-19,-200.0,0.0,200.0,-99.9,-99.9,-99.9,0,0,100,30.09,29.67,13,6,17,0.00
2014-2-20,-200.0,0.0,200.0,-99.9,-99.9,-99.9,0,0,100,30.20,29.81,16,7,21,0.00
2014-2-21,-200.0,0.0,200.0,-99.9,-99.9,-99.9,0,0,100,30.13,29.66,13,6,23,0.00
2014-2-22,-200.0,0.0,200.0,-99.9,-99.9,-99.9,0,0,100,29.97,29.84,21,9,31,0.00
2014-2-23,-200.0,0.0,200.0,-99.9,-99.9,-99.9,0,0,100,29.98,29.76,11,6,14,0.00
2014-2-24,-200.0,0.0,200.0,-99.9,-99.9,-99.9,0,0,100,29.96,29.72,22,12,33,0.00
2014-2-25,-200.0,0.0,200.0,-99.9,-99.9,-99.9,0,0,100,30.00,29.85,17,9,25,0.00
2014-2-26,-200.0,0.0,200.0,-99.9,-99.9,-99.9,0,0,100,29.94,29.74,16,8,25,0.00
2014-2-27,-200.0,0.0,200.0,-99.9,-99.9,-99.9,0,0,100,29.92,29.57,26,9,39,0.00
2014-2-28,-200.0,0.0,200.0,-99.9,-99.9,-99.9,0,0,100,30.42,29.90,22,10,31,0.00
2014-3-1,-200.0,0.0,200.0,-99.9,-99.9,-99.9,0,0,100,30.43,30.10,14,6,23,0.00
2014-3-2,-200.0,0.0,200.0,-99.9,-99.9,-99.9,0,0,100,30.10,29.94,13,6,17,0.00
2014-3-3,-200.0,0.0,200.0,-99.9,-99.9,-99.9,0,0,100,30.27,29.94,18,11,24,0.00
2014-3-4,-200.0,0.0,200.0,-99.9,-99.9,-99.9,0,0,100,30.37,30.23,13,6,17,0.00
2014-3-5,-200.0,0.0,200.0,-99.9,-99.9,-99.9,0,0,100,30.44,30.20,13,5,18,0.00
2014-3-6,-200.0,0.0,200.0,-99.9,-99.9,-99.9,0,0,100,30.60,30.44,15,6,22,0.00
2014-3-7,-200.0,0.0,200.0,-99.9,-99.9,-99.9,0,0,100,30.50,29.91,9,3,11,0.00
2014-3-8,-200.0,0.0,200.0,-99.9,-99.9,-99.9,0,0,100,29.92,29.66,19,7,26,0.00
2014-3-9,-200.0,0.0,200.0,-99.9,-99.9,-99.9,0,0,100,29.92,29.83,19,11,25,0.00
2014-3-10,-200.0,0.0,200.0,-99.9,-99.9,-99.9,0,0,100,29.89,29.64,12,6,16,0.00
2014-3-11,-200.0,0.0,200.0,-99.9,-99.9,-99.9,0,0,100,29.70,29.49,20,7,27,0.00
2014-3-12,-200.0,0.0,200.0,-99.9,-99.9,-99.9,0,0,100,29.70,28.95,21,7,35,0.00
2014-3-13,-200.0,0.0,200.0,-99.9,-99.9,-99.9,0,0,100,29.94,28.95,28,17,44,0.00
2014-3-14,-200.0,0.0,200.0,-99.9,-99.9,-99.9,0,0,100,30.18,29.93,19,9,29,0.00
2014-3-15,-200.0,0.0,200.0,-99.9,-99.9,-99.9,0,0,100,29.93,29.65,31,10,48,0.00
2014-3-16,-200.0,0.0,200.0,-99.9,-99.9,-99.9,0,0,100,30.17,29.88,20,12,30,0.00
2014-3-17,-200.0,0.0,200.0,-99.9,-99.9,-99.9,0,0,100,30.15,30.02,18,10,24,0.00
2014-3-18,-200.0,0.0,200.0,-99.9,-99.9,-99.9,0,0,100,30.33,30.17,11,6,15,0.00
2014-3-19,-200.0,0.0,200.0,-99.9,-99.9,-99.9,0,0,100,30.37,29.96,17,7,19,0.00
2014-3-20,-200.0,0.0,200.0,-99.9,-99.9,-99.9,0,0,100,29.99,29.61,18,8,30,0.00
2014-3-21,-200.0,0.0,200.0,-99.9,-99.9,-99.9,0,0,100,30.04,29.75,21,12,31,0.00
2014-3-22,-200.0,0.0,200.0,-99.9,-99.9,-99.9,0,0,100,30.05,29.64,25,12,37,0.00
2014-3-23,-200.0,0.0,200.0,-99.9,-99.9,-99.9,0,0,100,30.00,29.88,18,9,24,0.00
2014-3-24,-200.0,0.0,200.0,-99.9,-99.9,-99.9,0,0,100,30.16,30.00,21,12,32,0.00
2014-3-25,-200.0,0.0,200.0,-99.9,-99.9,-99.9,0,0,100,30.14,29.86,19,7,27,0.00
2014-3-26,-200.0,0.0,200.0,-99.9,-99.9,-99.9,0,0,100,30.00,29.56,32,20,47,0.00
2014-3-27,-200.0,0.0,200.0,-99.9,-99.9,-99.9,0,0,100,30.31,30.00,19,11,29,0.00
2014-3-28,-200.0,0.0,200.0,-99.9,-99.9,-99.9,0,0,100,30.27,29.95,21,10,35,0.00
2014-3-29,-200.0,0.0,200.0,-99.9,-99.9,-99.9,0,0,100,30.20,29.93,15,8,18,0.00
2014-3-30,-200.0,0.0,200.0,-99.9,-99.9,-99.9,0,0,100,29.91,29.55,22,12,33,0.00
2014-3-31,-200.0,0.0,200.0,-99.9,-99.9,-99.9,0,0,100,29.96,29.65,25,14,34,0.00
2014-4-1,-200.0,0.0,200.0,-99.9,-99.9,-99.9,0,0,100,30.09,29.96,18,10,26,0.00
2014-4-2,-200.0,0.0,200.0,-99.9,-99.9,-99.9,0,0,100,30.11,30.00,14,6,18,0.00
2014-4-3,-200.0,0.0,200.0,-99.9,-99.9,-99.9,0,0,100,30.11,29.99,18,6,26,0.00
2014-4-4,-200.0,0.0,200.0,-99.9,-99.9,-99.9,0,0,100,30.13,29.83,20,9,25,0.00
2014-4-5,-200.0,0.0,200.0,-99.9,-99.9,-99.9,0,0,100,29.94,29.66,20,11,30,0.00
2014-4-6,-200.0,0.0,200.0,-99.9,-99.9,-99.9,0,0,100,30.17,29.94,15,7,20,0.00
2014-4-7,-200.0,0.0,200.0,-99.9,-99.9,-99.9,0,0,100,30.21,29.88,17,7,22,0.00
2014-4-8,-200.0,0.0,200.0,-99.9,-99.9,-99.9,0,0,100,29.88,29.33,19,10,29,0.00
2014-4-9,-200.0,0.0,200.0,-99.9,-99.9,-99.9,0,0,100,29.94,29.51,21,11,31,0.00
2014-4-10,-200.0,0.0,200.0,-99.9,-99.9,-99.9,0,0,100,30.16,29.94,21,10,30,0.00
2014-4-11,-200.0,0.0,200.0,-99.9,-99.9,-99.9,0,0,100,30.03,29.90,18,9,23,0.00
2014-4-12,-200.0,0.0,200.0,-99.9,-99.9,-99.9,0,0,100,30.20,29.94,16,8,25,0.00
2014-4-13,-200.0,0.0,200.0,-99.9,-99.9,-99.9,0,0,100,30.23,30.02,21,11,27,0.00
2014-4-14,-200.0,0.0,200.0,-99.9,-99.9,-99.9,0,0,100,30.04,29.92,30,16,43,0.00
2014-4-15,-200.0,0.0,200.0,-99.9,-99.9,-99.9,0,0,100,29.92,29.57,29,18,42,0.00
2014-4-16,-200.0,0.0,200.0,-99.9,-99.9,-99.9,0,0,100,30.57,29.72,24,14,38,0.00
2014-4-17,-200.0,0.0,200.0,-99.9,-99.9,-99.9,0,0,100,30.75,30.57,21,12,27,0.00
2014-4-18,-200.0,0.0,200.0,-99.9,-99.9,-99.9,0,0,100,30.63,30.24,14,7,17,0.00
2014-4-19,-200.0,0.0,200.0,-99.9,-99.9,-99.9,0,0,100,30.37,30.16,22,9,29,0.00
2014-4-20,-200.0,0.0,200.0,-99.9,-99.9,-99.9,0,0,100,30.48,30.33,17,8,22,0.00
2014-4-21,-200.0,0.0,200.0,-99.9,-99.9,-99.9,0,0,100,30.33,29.86,21,8,25,0.00
2014-4-22,-200.0,0.0,200.0,-99.9,-99.9,-99.9,0,0,100,29.86,29.47,23,10,28,0.00
2014-4-23,-200.0,0.0,200.0,-99.9,-99.9,-99.9,0,0,100,29.60,29.41,29,11,38,0.00
2014-4-24,57.0,6.4,51.0,-99.9,-99.9,-99.9,0,0,100,29.85,29.60,26,18,35,0.00
2014-4-25,55.0,50.9,45.0,-99.9,-99.9,-99.9,0,0,100,29.97,29.84,19,12,23,0.00
2014-4-26,47.0,46.2,45.0,-99.9,-99.9,-99.9,0,0,100,29.80,29.75,6,4,11,0.00
2014-4-27,49.0,35.2,44.0,-99.9,-99.9,-99.9,0,0,100,30.00,29.81,7,6,13,0.00
2014-4-28,56.0,49.5,43.0,-99.9,-99.9,-99.9,0,0,100,30.16,29.98,13,12,18,0.00
2014-4-29,46.0,44.3,43.0,-99.9,-99.9,-99.9,0,0,100,30.46,30.20,15,14,21,0.00
2014-4-30,43.0,1.4,41.0,-99.9,-99.9,-99.9,0,0,100,30.49,30.14,12,9,17,0.00
2014-5-1,-200.0,0.0,200.0,-99.9,-99.9,-99.9,0,0,100,30.14,29.66,24,10,32,0.00
2014-5-2,-200.0,0.0,200.0,-99.9,-99.9,-99.9,0,0,100,29.79,29.65,18,8,24,0.00
2014-5-3,-200.0,0.0,200.0,-99.9,-99.9,-99.9,0,0,100,29.85,29.70,19,8,25,0.00
2014-5-4,-200.0,0.0,200.0,-99.9,-99.9,-99.9,0,0,100,29.71,29.52,24,13,37,0.00
2014-5-5,-200.0,0.0,200.0,-99.9,-99.9,-99.9,0,0,100,29.83,29.60,21,13,29,0.00
2014-5-6,-200.0,0.0,200.0,-99.9,-99.9,-99.9,0,0,100,29.99,29.81,19,10,28,0.00
2014-5-7,-200.0,0.0,200.0,-99.9,-99.9,-99.9,0,0,100,30.01,30.01,9,8,12,0.00
2014-5-13,-200.0,0.0,200.0,-99.9,-99.9,-99.9,0,0,100,30.30,30.27,12,8,15,0.00
2014-5-14,-200.0,0.0,200.0,-99.9,-99.9,-99.9,0,0,100,30.31,30.25,16,8,22,0.00
2014-5-15,-200.0,0.0,200.0,-99.9,-99.9,-99.9,0,0,100,30.28,30.19,17,10,23,0.00
2014-5-16,-200.0,0.0,200.0,-99.9,-99.9,-99.9,0,0,100,30.19,29.96,24,16,31,0.00
2014-5-17,-200.0,0.0,200.0,-99.9,-99.9,-99.9,0,0,100,30.04,29.82,26,12,32,0.00
2014-5-18,-200.0,0.0,200.0,-99.9,-99.9,-99.9,0,0,100,30.09,29.98,13,8,20,0.00
2014-5-19,-200.0,0.0,200.0,-99.9,-99.9,-99.9,0,0,100,30.08,29.99,23,12,33,0.00
2014-5-20,-200.0,0.0,200.0,-99.9,-99.9,-99.9,0,0,100,30.01,29.91,21,10,31,0.00
2014-5-21,-200.0,0.0,200.0,-99.9,-99.9,-99.9,0,0,100,29.97,29.90,19,6,24,0.00
2014-5-22,-200.0,0.0,200.0,-99.9,-99.9,-99.9,0,0,100,29.94,29.83,14,6,18,0.00
2014-5-23,-200.0,0.0,200.0,-99.9,-99.9,-99.9,0,0,100,29.93,29.85,9,4,14,0.00
2014-5-24,-200.0,0.0,200.0,-99.9,-99.9,-99.9,0,0,100,30.04,29.90,12,5,16,0.00
2014-5-25,-200.0,0.0,200.0,-99.9,-99.9,-99.9,0,0,100,30.08,29.99,16,6,21,0.00
2014-5-26,-200.0,0.0,200.0,-99.9,-99.9,-99.9,0,0,100,30.02,29.79,15,5,21,0.00
2014-5-27,-200.0,0.0,200.0,-99.9,-99.9,-99.9,0,0,100,29.90,29.78,11,5,17,0.00
2014-5-28,-200.0,0.0,200.0,-99.9,-99.9,-99.9,0,0,100,30.18,29.85,13,8,22,0.00
2014-5-29,-200.0,0.0,200.0,-99.9,-99.9,-99.9,0,0,100,30.21,30.13,19,7,22,0.00
2014-5-30,-200.0,0.0,200.0,-99.9,-99.9,-99.9,0,0,100,30.15,29.98,20,8,22,0.00
2014-5-31,-200.0,0.0,200.0,-99.9,-99.9,-99.9,0,0,100,30.26,30.01,24,11,29,0.00
2014-6-1,-200.0,0.0,200.0,-99.9,-99.9,-99.9,0,0,100,30.30,30.22,14,7,18,0.00
2014-6-2,-200.0,0.0,200.0,-99.9,-99.9,-99.9,0,0,100,30.24,30.00,17,8,21,0.00
2014-6-3,73.0,1.4,73.0,-99.9,-99.9,-99.9,0,0,100,30.02,29.87,22,10,27,0.00
2014-6-4,-200.0,0.0,200.0,-99.9,-99.9,-99.9,0,0,100,29.88,29.75,14,6,16,0.00
2014-6-5,-200.0,0.0,200.0,-99.9,-99.9,-99.9,0,0,100,29.77,29.60,15,6,21,0.00
2014-6-6,-200.0,0.0,200.0,-99.9,-99.9,-99.9,0,0,100,29.85,29.69,19,10,25,0.00
2014-6-7,-200.0,0.0,200.0,-99.9,-99.9,-99.9,0,0,100,29.92,29.85,14,7,19,0.00
2014-6-8,-200.0,0.0,200.0,-99.9,-99.9,-99.9,0,0,100,29.92,29.84,15,5,20,0.00
2014-6-9,-200.0,0.0,200.0,-99.9,-99.9,-99.9,0,0,100,29.98,29.89,13,6,17,0.00
2014-6-10,-200.0,0.0,200.0,-99.9,-99.9,-99.9,0,0,100,30.07,29.92,19,7,23,0.00
2014-6-11,-200.0,0.0,200.0,-99.9,-99.9,-99.9,0,0,100,30.14,30.06,15,9,20,0.00
2014-6-12,-200.0,0.0,200.0,-99.9,-99.9,-99.9,0,0,100,30.13,30.03,16,7,18,0.00
2014-6-13,-200.0,0.0,200.0,-99.9,-99.9,-99.9,0,0,100,30.03,29.74,8,4,10,0.00
2014-6-14,-200.0,0.0,200.0,-99.9,-99.9,-99.9,0,0,100,29.90,29.77,18,7,23,0.00
2014-6-15,-200.0,0.0,200.0,-99.9,-99.9,-99.9,0,0,100,30.03,29.89,18,11,26,0.00
2014-6-16,-200.0,0.0,200.0,-99.9,-99.9,-99.9,0,0,100,30.12,30.02,18,7,21,0.00
2014-6-17,-200.0,0.0,200.0,-99.9,-99.9,-99.9,0,0,100,30.07,29.89,22,10,27,0.00
2014-6-18,-200.0,0.0,200.0,-99.9,-99.9,-99.9,0,0,100,29.92,29.73,24,11,29,0.00
2014-6-19,-200.0,0.0,200.0,-99.9,-99.9,-99.9,0,0,100,29.96,29.87,15,8,22,0.00
2014-6-20,-200.0,0.0,200.0,-99.9,-99.9,-99.9,0,0,100,29.95,29.85,19,8,26,0.00
2014-6-21,-200.0,0.0,200.0,-99.9,-99.9,-99.9,0,0,100,29.96,29.85,13,5,19,0.00
2014-6-22,-200.0,0.0,200.0,-99.9,-99.9,-99.9,0,0,100,30.01,29.90,15,6,20,0.00
2014-6-23,-200.0,0.0,200.0,-99.9,-99.9,-99.9,0,0,100,30.16,30.01,17,6,22,0.00
2014-6-24,-200.0,0.0,200.0,-99.9,-99.9,-99.9,0,0,100,30.17,30.02,24,11,29,0.00
2014-6-25,-200.0,0.0,200.0,-99.9,-99.9,-99.9,0,0,100,30.02,29.86,18,9,24,0.00
2014-6-26,-200.0,0.0,200.0,-99.9,-99.9,-99.9,0,0,100,29.98,29.77,14,8,19,0.00
2014-6-27,-200.0,0.0,200.0,-99.9,-99.9,-99.9,0,0,100,30.18,29.98,18,9,24,0.00
2014-6-28,-200.0,0.0,200.0,-99.9,-99.9,-99.9,0,0,100,30.26,30.19,17,7,22,0.00
2014-6-29,-200.0,0.0,200.0,-99.9,-99.9,-99.9,0,0,100,30.25,30.11,21,8,24,0.00
2014-6-30,-200.0,0.0,200.0,-99.9,-99.9,-99.9,0,0,100,30.12,29.94,17,8,23,0.00
2014-7-1,-200.0,0.0,200.0,-99.9,-99.9,-99.9,0,0,100,29.94,29.81,25,10,29,0.00
2014-7-2,-200.0,0.0,200.0,-99.9,-99.9,-99.9,0,0,100,29.93,29.82,21,11,28,0.00
2014-7-3,-200.0,0.0,200.0,-99.9,-99.9,-99.9,0,0,100,30.00,29.88,19,11,24,0.00
2014-7-4,-200.0,0.0,200.0,-99.9,-99.9,-99.9,0,0,100,29.98,29.75,19,8,26,0.00
2014-7-5,-200.0,0.0,200.0,-99.9,-99.9,-99.9,0,0,100,30.01,29.76,21,13,31,0.00
2014-7-6,-200.0,0.0,200.0,-99.9,-99.9,-99.9,0,0,100,30.01,29.88,18,10,28,0.00
2014-7-7,-200.0,0.0,200.0,-99.9,-99.9,-99.9,0,0,100,29.89,29.71,20,11,30,0.00
2014-7-8,-200.0,0.0,200.0,-99.9,-99.9,-99.9,0,0,100,29.81,29.70,21,10,26,0.00
2014-7-9,-200.0,0.0,200.0,-99.9,-99.9,-99.9,0,0,100,29.92,29.67,18,10,25,0.00
2014-7-10,-200.0,0.0,200.0,-99.9,0.0,200.0,0,0,100,30.12,29.91,10,6,15,0.00
2014-7-11,-200.0,0.0,200.0,-99.9,0.0,200.0,0,0,100,30.20,30.11,12,6,15,0.00
2014-7-12,-200.0,0.0,200.0,-99.9,0.0,200.0,0,0,100,30.21,30.12,16,7,22,0.00
2014-7-13,-200.0,0.0,200.0,-99.9,0.0,200.0,0,0,100,30.13,29.92,21,11,30,0.00
2014-7-14,-200.0,0.0,200.0,-99.9,0.0,200.0,0,0,100,29.92,29.85,17,9,21,0.00
2014-7-15,-200.0,0.0,200.0,-99.9,0.0,200.0,0,0,100,29.87,29.75,15,9,21,0.00
2014-7-16,-200.0,0.0,200.0,-99.9,0.0,200.0,0,0,100,29.84,29.74,15,7,21,0.00
2014-7-17,-200.0,0.0,200.0,-99.9,0.0,200.0,0,0,100,30.05,29.83,13,6,17,0.00
2014-7-18,-200.0,0.0,200.0,-99.9,0.0,200.0,0,0,100,30.21,30.05,11,6,14,0.00
2014-7-19,-200.0,0.0,200.0,-99.9,0.0,200.0,0,0,100,30.25,30.19,13,5,16,0.00
2014-7-20,-200.0,0.0,200.0,-99.9,0.0,200.0,0,0,100,30.19,30.10,12,6,16,0.00
2014-7-21,-200.0,0.0,200.0,-99.9,0.0,200.0,0,0,100,30.18,30.11,11,7,15,0.00
2014-7-22,-200.0,0.0,200.0,-99.9,0.0,200.0,0,0,100,30.14,30.00,18,8,22,0.00
2014-7-23,-200.0,0.0,200.0,-99.9,0.0,200.0,0,0,100,30.00,29.76,18,9,24,0.00
2014-7-24,-200.0,0.0,200.0,-99.9,0.0,200.0,0,0,100,29.88,29.73,10,5,16,0.00
2014-7-25,-200.0,0.0,200.0,-99.9,0.0,200.0,0,0,100,29.97,29.87,11,6,16,0.00
2014-7-26,-200.0,0.0,200.0,-99.9,0.0,200.0,0,0,100,29.98,29.89,19,8,23,0.00
2014-7-27,-200.0,0.0,200.0,-99.9,0.0,200.0,0,0,100,29.89,29.65,14,8,19,0.00
2014-7-28,-200.0,0.0,200.0,-99.9,0.0,200.0,0,0,100,29.67,29.44,19,11,27,0.00
2014-7-29,-200.0,0.0,200.0,-99.9,0.0,200.0,0,0,100,29.93,29.55,13,7,17,0.00
2014-7-30,-200.0,0.0,200.0,-99.9,0.0,200.0,0,0,100,30.03,29.92,20,6,22,0.00
2014-7-31,-200.0,0.0,200.0,-99.9,0.0,200.0,0,0,100,30.15,30.03,20,9,27,0.00
2014-8-1,-200.0,0.0,200.0,-99.9,0.0,200.0,0,0,100,30.21,30.15,21,7,27,0.00
2014-8-2,-200.0,0.0,200.0,-99.9,0.0,200.0,0,0,100,30.21,30.09,14,6,18,0.00
2014-8-3,-200.0,0.0,200.0,-99.9,0.0,200.0,0,0,100,30.12,30.02,8,4,11,0.00
2014-8-4,-200.0,0.0,200.0,-99.9,0.0,200.0,0,0,100,30.03,29.98,15,7,20,0.00
2014-8-5,-200.0,0.0,200.0,-99.9,0.0,200.0,0,0,100,30.01,29.88,20,7,23,0.00
2014-8-6,-200.0,0.0,200.0,-99.9,0.0,200.0,0,0,100,29.88,29.76,18,8,26,0.00
2014-8-7,-200.0,0.0,200.0,-99.9,0.0,200.0,0,0,100,29.93,29.82,13,9,23,0.00
2014-8-8,-200.0,0.0,200.0,-99.9,0.0,200.0,0,0,100,30.00,29.92,13,9,21,0.00
2014-8-9,-200.0,0.0,200.0,-99.9,0.0,200.0,0,0,100,30.07,29.99,17,8,20,0.00
2014-8-10,-200.0,0.0,200.0,-99.9,0.0,200.0,0,0,100,30.11,30.06,15,6,18,0.00
2014-8-11,-200.0,0.0,200.0,-99.9,0.0,200.0,0,0,100,30.14,30.10,22,8,27,0.00
2014-8-12,-200.0,0.0,200.0,-99.9,0.0,200.0,0,0,100,30.11,29.98,20,10,25,0.00
2014-8-13,-200.0,0.0,200.0,-99.9,0.0,200.0,0,0,100,29.98,29.58,25,13,31,0.00
2014-8-14,-200.0,0.0,200.0,-99.9,0.0,200.0,0,0,100,29.86,29.65,17,7,22,0.00
2014-8-15,-200.0,0.0,200.0,-99.9,0.0,200.0,0,0,100,29.93,29.80,15,7,20,0.00
2014-8-16,-200.0,0.0,200.0,-99.9,0.0,200.0,0,0,100,29.97,29.90,17,8,22,0.00
2014-8-17,-200.0,0.0,200.0,-99.9,0.0,200.0,0,0,100,29.90,29.74,13,6,17,0.00
2014-8-18,-200.0,0.0,200.0,-99.9,0.0,200.0,0,0,100,29.86,29.76,13,8,20,0.00
2014-8-19,-200.0,0.0,200.0,-99.9,0.0,200.0,0,0,100,29.93,29.85,13,5,15,0.00
2014-8-20,-200.0,0.0,200.0,-99.9,0.0,200.0,0,0,100,30.02,29.93,16,5,18,0.00
2014-8-21,-200.0,0.0,200.0,-99.9,0.0,200.0,0,0,100,30.07,30.01,14,6,16,0.00
2014-8-22,-200.0,0.0,200.0,-99.9,0.0,200.0,0,0,100,30.06,30.02,13,8,17,0.00
2014-8-23,-200.0,0.0,200.0,-99.9,0.0,200.0,0,0,100,30.10,30.04,18,10,23,0.00
2014-8-24,-200.0,0.0,200.0,-99.9,0.0,200.0,0,0,100,30.12,30.08,11,6,16,0.00
2014-8-25,-200.0,0.0,200.0,-99.9,0.0,200.0,0,0,100,30.13,30.07,16,6,20,0.00
2014-8-26,-200.0,0.0,200.0,-99.9,0.0,200.0,0,0,100,30.15,30.05,19,8,22,0.00
2014-8-27,-200.0,0.0,200.0,-99.9,0.0,200.0,0,0,100,30.06,29.84,13,7,20,0.00
2014-8-28,-200.0,0.0,200.0,-99.9,0.0,200.0,0,0,100,29.98,29.77,17,10,24,0.00
2014-8-29,-200.0,0.0,200.0,-99.9,0.0,200.0,0,0,100,30.25,29.97,11,6,16,0.00
2014-8-30,-200.0,0.0,200.0,-99.9,0.0,200.0,0,0,100,30.29,30.14,20,8,25,0.00
2014-8-31,-200.0,0.0,200.0,-99.9,0.0,200.0,0,0,100,30.14,29.94,14,8,23,0.00
2014-9-1,-200.0,0.0,200.0,-99.9,0.0,200.0,0,0,100,29.97,29.89,13,6,16,0.00
2014-9-2,-200.0,0.0,200.0,-99.9,0.0,200.0,0,0,100,29.92,29.74,18,8,23,0.00
2014-9-3,-200.0,0.0,200.0,-99.9,0.0,200.0,0,0,100,30.06,29.70,18,9,25,0.00
2014-9-4,-200.0,0.0,200.0,-99.9,0.0,200.0,0,0,100,30.17,30.06,14,6,17,0.00
2014-9-5,-200.0,0.0,200.0,-99.9,0.0,200.0,0,0,100,30.15,29.98,22,8,28,0.00
2014-9-6,-200.0,0.0,200.0,-99.9,0.0,200.0,0,0,100,29.98,29.76,18,10,26,0.00
2014-9-7,-200.0,0.0,200.0,-99.9,0.0,200.0,0,0,100,30.18,29.88,15,8,20,0.00
2014-9-8,-200.0,0.0,200.0,-99.9,0.0,200.0,0,0,100,30.34,30.18,15,8,21,0.00
2014-9-9,-200.0,0.0,200.0,-99.9,0.0,200.0,0,0,100,30.32,30.15,14,8,17,0.00
2014-9-10,64.0,0.6,64.0,-99.9,0.0,200.0,0,0,100,30.15,30.02,13,8,17,0.00
2014-9-11,-200.0,0.0,200.0,-99.9,0.0,200.0,0,0,100,30.02,29.78,18,8,25,0.00
2014-9-12,-200.0,0.0,200.0,-99.9,0.0,200.0,0,0,100,30.20,29.87,17,9,24,0.00
2014-9-13,-200.0,0.0,200.0,-99.9,0.0,200.0,0,0,100,30.24,30.08,16,7,20,0.00
2014-9-14,-200.0,0.0,200.0,-99.9,0.0,200.0,0,0,100,30.20,30.08,16,8,23,0.00
2014-9-15,-200.0,0.0,200.0,-99.9,0.0,200.0,0,0,100,30.22,30.08,14,7,17,0.00
2014-9-16,-200.0,0.0,200.0,-99.9,0.0,200.0,0,0,100,30.08,29.92,10,5,15,0.00
2014-9-17,-200.0,0.0,200.0,-99.9,0.0,200.0,0,0,100,30.00,29.91,17,6,20,0.00
2014-9-18,-200.0,0.0,200.0,-99.9,0.0,200.0,0,0,100,30.08,29.91,15,6,22,0.00
2014-9-19,-200.0,0.0,200.0,-99.9,0.0,200.0,0,0,100,30.41,30.08,16,9,23,0.00
2014-9-20,-200.0,0.0,200.0,-99.9,0.0,200.0,0,0,100,30.38,30.08,21,8,26,0.00
2014-9-21,-200.0,0.0,200.0,-99.9,0.0,200.0,0,0,100,30.07,29.55,17,8,22,0.00
2014-9-22,-200.0,0.0,200.0,-99.9,0.0,200.0,0,0,100,30.08,29.54,23,10,34,0.00
2014-9-23,-200.0,0.0,200.0,-99.9,0.0,200.0,0,0,100,30.40,30.08,17,6,21,0.00
2014-9-24,-200.0,0.0,200.0,-99.9,0.0,200.0,0,0,100,30.58,30.40,13,6,17,0.00
2014-9-25,-200.0,0.0,200.0,-99.9,0.0,200.0,0,0,100,30.52,30.21,9,5,16,0.00
2014-9-26,-200.0,0.0,200.0,-99.9,0.0,200.0,0,0,100,30.20,30.11,10,6,17,0.00
2014-9-27,-200.0,0.0,200.0,-99.9,0.0,200.0,0,0,100,30.16,30.10,10,3,12,0.00
2014-9-28,-200.0,0.0,200.0,-99.9,0.0,200.0,0,0,100,30.15,29.97,12,5,14,0.00
2014-9-29,-200.0,0.0,200.0,-99.9,0.0,200.0,0,0,100,29.98,29.90,13,5,19,0.00
2014-9-30,-200.0,0.0,200.0,-99.9,0.0,200.0,0,0,100,30.01,29.95,13,9,19,0.00
2014-10-1,-200.0,0.0,200.0,-99.9,0.0,200.0,0,0,100,30.05,29.96,17,12,25,0.00
2014-10-2,-200.0,0.0,200.0,-99.9,0.0,200.0,0,0,100,30.14,30.04,17,12,27,0.00
2014-10-3,-200.0,0.0,200.0,-99.9,0.0,200.0,0,0,100,30.11,29.88,14,8,18,0.00
2014-10-4,-200.0,0.0,200.0,-99.9,0.0,200.0,0,0,100,29.89,29.50,20,8,25,0.00
2014-10-5,-200.0,0.0,200.0,-99.9,0.0,200.0,0,0,100,29.93,29.54,13,8,21,0.00
2014-10-6,-200.0,0.0,200.0,-99.9,0.0,200.0,0,0,100,30.12,29.93,18,7,24,0.00
2014-10-7,-200.0,0.0,200.0,-99.9,0.0,200.0,0,0,100,30.12,29.96,22,10,31,0.00
2014-10-8,-200.0,0.0,200.0,-99.9,0.0,200.0,0,0,100,29.96,29.71,20,10,30,0.00
2014-10-9,-200.0,0.0,200.0,-99.9,0.0,200.0,0,0,100,29.97,29.86,20,8,30,0.00
2014-10-10,-200.0,0.0,200.0,-99.9,0.0,200.0,0,0,100,30.11,29.97,13,7,21,0.00
2014-10-11,-200.0,0.0,200.0,-99.9,0.0,200.0,0,0,100,30.11,30.03,11,5,16,0.00
2014-10-12,-200.0,0.0,200.0,-99.9,0.0,200.0,0,0,100,30.29,30.11,16,5,19,0.00
2014-10-13,-200.0,0.0,200.0,-99.9,0.0,200.0,0,0,100,30.35,30.25,16,5,21,0.00
2014-10-14,-200.0,0.0,200.0,-99.9,0.0,200.0,0,0,100,30.25,30.14,15,8,23,0.00
2014-10-15,-200.0,0.0,200.0,-99.9,0.0,200.0,0,0,100,30.14,29.94,18,10,28,0.00
2014-10-16,-200.0,0.0,200.0,-99.9,0.0,200.0,0,0,100,29.94,29.66,23,13,30,0.00
2014-10-17,-200.0,0.0,200.0,-99.9,0.0,200.0,0,0,100,29.69,29.60,17,8,23,0.00
2014-10-18,69.0,0.6,69.0,-99.9,0.0,200.0,0,0,100,29.67,29.48,19,8,29,0.00
2014-10-19,-200.0,0.0,200.0,-99.9,0.0,200.0,0,0,100,29.94,29.59,22,12,29,0.00
2014-10-20,-200.0,0.0,200.0,-99.9,0.0,200.0,0,0,100,30.07,29.94,15,7,19,0.00
2014-10-21,-200.0,0.0,200.0,-99.9,0.0,200.0,0,0,100,29.98,29.85,12,5,14,0.00
2014-10-22,-200.0,0.0,200.0,-99.9,0.0,200.0,0,0,100,29.95,29.68,32,17,46,0.00
2014-10-23,-200.0,0.0,200.0,-99.9,0.0,200.0,0,0,100,29.72,29.53,34,19,51,0.00
2014-10-24,-200.0,0.0,200.0,-99.9,0.0,200.0,0,0,100,29.73,29.61,18,11,24,0.00
2014-10-25,51.0,0.5,51.0,-99.9,0.0,200.0,0,0,100,29.76,29.48,13,7,18,0.00
2014-10-26,-200.0,0.0,200.0,-99.9,0.0,200.0,0,0,100,29.71,29.43,24,11,36,0.00
2014-10-27,-200.0,0.0,200.0,-99.9,0.0,200.0,0,0,100,30.01,29.71,18,8,24,0.00
2014-10-28,-200.0,0.0,200.0,-99.9,0.0,200.0,0,0,100,30.04,29.91,12,6,17,0.00
2014-10-29,-200.0,0.0,200.0,-99.9,0.0,200.0,0,0,100,29.92,29.74,14,7,22,0.00
2014-10-30,-200.0,0.0,200.0,-99.9,0.0,200.0,0,0,100,29.97,29.86,15,8,19,0.00
2014-10-31,-200.0,0.0,200.0,-99.9,0.0,200.0,0,0,100,30.01,29.90,11,6,16,0.00
2014-11-1,-200.0,0.0,200.0,-99.9,0.0,200.0,0,0,100,29.91,29.70,14,8,27,0.00
2014-11-2,-200.0,0.0,200.0,-99.9,0.0,200.0,0,0,100,29.84,29.57,27,17,38,0.00
2014-11-3,-200.0,0.0,200.0,-99.9,0.0,200.0,0,0,100,30.05,29.83,21,10,35,0.00
2014-11-4,-200.0,0.0,200.0,-99.9,0.0,200.0,0,0,100,30.11,30.01,13,4,16,0.00
2014-11-5,-200.0,0.0,200.0,-99.9,0.0,200.0,0,0,100,30.10,29.96,15,6,23,0.00
2014-11-6,-200.0,0.0,200.0,-99.9,0.0,200.0,0,0,100,30.10,29.48,9,5,12,0.00
2014-11-7,-200.0,0.0,200.0,-99.9,0.0,200.0,0,0,100,29.79,29.44,24,12,36,0.00
2014-11-8,-200.0,0.0,200.0,-99.9,0.0,200.0,0,0,100,29.96,29.78,14,6,18,0.00
2014-11-9,-200.0,0.0,200.0,-99.9,0.0,200.0,0,0,100,29.98,29.85,10,4,14,0.00
2014-11-10,-200.0,0.0,200.0,-99.9,0.0,200.0,0,0,100,30.18,29.98,13,4,17,0.00
2014-11-11,-200.0,0.0,200.0,-99.9,0.0,200.0,0,0,100,30.18,29.94,15,5,18,0.00
2014-11-12,-200.0,0.0,200.0,-99.9,0.0,200.0,0,0,100,29.98,29.83,15,5,22,0.00
2014-11-13,-200.0,0.0,200.0,-99.9,0.0,200.0,0,0,100,30.06,29.92,13,8,19,0.00
2014-11-14,-200.0,0.0,200.0,-99.9,0.0,200.0,0,0,100,30.08,29.88,16,10,23,0.00
2014-11-15,-200.0,0.0,200.0,-99.9,0.0,200.0,0,0,100,30.33,30.08,13,7,19,0.00
2014-11-16,-200.0,0.0,200.0,-99.9,0.0,200.0,0,0,100,30.38,30.10,7,3,8,0.00
2014-11-17,-200.0,0.0,200.0,-99.9,0.0,200.0,0,0,100,30.10,29.40,11,5,21,0.00
2014-11-18,-200.0,0.0,200.0,-99.9,0.0,200.0,0,0,100,29.95,29.44,20,11,27,0.00
2014-11-19,-200.0,0.0,200.0,-99.9,0.0,200.0,0,0,100,30.15,29.95,17,10,26,0.00
2014-11-20,-200.0,0.0,200.0,-99.9,0.0,200.0,0,0,100,30.07,29.74,23,8,35,0.00
2014-11-21,-200.0,0.0,200.0,-99.9,0.0,200.0,0,0,100,30.42,29.90,23,11,30,0.00
2014-11-22,-200.0,0.0,200.0,-99.9,0.0,200.0,0,0,100,30.44,30.08,18,8,26,0.00
2014-11-23,-200.0,0.0,200.0,-99.9,0.0,200.0,0,0,100,30.15,30.07,14,6,18,0.00
2014-11-24,-200.0,0.0,200.0,-99.9,0.0,200.0,0,0,100,30.07,29.60,28,13,40,0.00
2014-11-25,-200.0,0.0,200.0,-99.9,0.0,200.0,0,0,100,30.11,29.69,13,7,18,0.00
2014-11-26,-200.0,0.0,200.0,-99.9,0.0,200.0,0,0,100,30.16,29.61,22,9,33,0.00
2014-11-27,-200.0,0.0,200.0,-99.9,0.0,200.0,0,0,100,29.98,29.62,20,9,30,0.00
2014-11-28,-200.0,0.0,200.0,-99.9,0.0,200.0,0,0,100,30.20,29.96,19,11,27,0.00
2014-11-29,-200.0,0.0,200.0,-99.9,0.0,200.0,0,0,100,30.33,30.21,10,6,14,0.00
2014-11-30,-200.0,0.0,200.0,-99.9,0.0,200.0,0,0,100,30.25,30.03,22,9,30,0.00
2014-12-1,-200.0,0.0,200.0,-99.9,0.0,200.0,0,0,100,30.39,30.01,18,10,26,0.00
2014-12-2,-200.0,0.0,200.0,-99.9,0.0,200.0,0,0,100,30.66,30.35,16,10,24,0.00
2014-12-3,-200.0,0.0,200.0,-99.9,0.0,200.0,0,0,100,30.36,29.89,18,9,27,0.00
2014-12-4,-200.0,0.0,200.0,-99.9,0.0,200.0,0,0,100,30.52,30.09,17,9,23,0.00
2014-12-5,-200.0,0.0,200.0,-99.9,0.0,200.0,0,0,100,30.64,30.39,12,7,15,0.00
2014-12-6,-200.0,0.0,200.0,-99.9,0.0,200.0,0,0,100,30.39,30.10,18,6,24,0.00
2014-12-7,-200.0,0.0,200.0,-99.9,0.0,200.0,0,0,100,30.63,30.16,23,17,35,0.00
2014-12-8,-200.0,0.0,200.0,-99.9,0.0,200.0,0,0,100,30.71,30.46,19,12,25,0.00
2014-12-9,-200.0,0.0,200.0,-99.9,0.0,200.0,0,0,100,30.46,29.44,24,13,34,0.00
2014-12-10,-200.0,0.0,200.0,-99.9,0.0,200.0,0,0,100,29.53,29.40,13,9,17,0.00
2014-12-11,-200.0,0.0,200.0,-99.9,0.0,200.0,0,0,100,29.79,29.43,14,8,19,0.00
2014-12-12,-200.0,0.0,200.0,-99.9,0.0,200.0,0,0,100,29.88,29.79,13,7,18,0.00
2014-12-13,38.0,1.4,35.0,-99.9,0.0,200.0,0,0,100,29.86,29.76,15,10,21,0.00
2014-12-14,46.0,27.3,32.0,-99.9,0.0,200.0,0,0,100,29.89,29.77,13,7,16,0.00
2014-12-15,43.0,19.1,34.0,-99.9,0.0,200.0,0,0,100,30.11,29.93,7,4,9,0.00
2014-12-16,42.0,39.1,32.0,-99.9,0.0,200.0,0,0,100,30.13,29.91,5,3,7,0.00
2014-12-17,50.0,44.4,41.0,-99.9,0.0,200.0,0,0,100,29.80,29.69,11,7,17,0.00
2014-12-18,42.0,40.2,37.0,-99.9,0.0,200.0,0,0,100,29.85,29.77,21,12,32,0.00
2014-12-19,38.0,25.8,34.0,-99.9,0.0,200.0,0,0,100,30.12,29.86,11,6,16,0.00
2014-12-23,46.0,44.7,41.0,-99.9,0.0,200.0,0,0,100,30.23,30.10,11,8,18,0.00
2014-12-24,49.0,46.1,42.0,-99.9,0.0,200.0,0,0,100,30.07,29.71,11,5,14,0.00
2014-12-25,60.0,53.1,48.0,-99.9,0.0,200.0,0,0,100,29.84,29.47,15,11,23,0.00
2014-12-26,48.0,43.7,39.0,-99.9,0.0,200.0,0,0,100,30.15,30.07,9,5,19,0.00
2014-12-27,54.0,43.3,40.0,-99.9,0.0,200.0,0,0,100,30.16,30.05,7,6,16,0.00
2014-12-28,48.0,44.8,41.0,-99.9,0.0,200.0,0,0,100,29.99,29.79,11,8,19,0.00
2014-12-29,42.0,33.4,36.0,-99.9,0.0,200.0,0,0,100,30.19,30.07,9,8,16,0.00
2014-12-30,30.0,1.2,26.0,-99.9,0.0,200.0,0,0,100,30.33,30.19,13,9,19,0.00
2014-12-31,20.0,0.2,20.0,-99.9,0.0,200.0,0,0,100,30.32,30.13,15,6,19,0.00
2015-1-1,33.0,0.9,32.0,-99.9,0.0,200.0,0,0,100,30.13,29.92,17,8,22,0.00
2015-1-2,40.0,16.7,33.0,-99.9,0.0,200.0,0,0,100,30.41,29.94,20,8,34,0.00